Location: Ernsee
(50.8780°N, 12.0389°E)
Time: 16:00:09
(UTC+00:00)

Cosmos 2227 - Pass Details

Date: 20 January 2020
Orbit: 836 x 860 km, 71.0° (Epoch: 19 February)

Event Time Altitude Azimuth Distance (km) Brightness Sun altitude
Exits shadow 05:08:48 18° 325° (NW) 1,946 5.7 -17.7°
Maximum altitude 05:13:01 71° 245° (WSW) 892 4.1 -17.0°
Drops below altitude 10° 05:18:36 10° 162° (SSE) 2,448 7.0 -16.2°
Sets 05:21:02 0° 160° (SSE) 3,376 7.8 -15.8°
